User: anonymous   Login
Location: Oshawa
(43.9000°N, 78.8670°W)
Time: 08:14:53
(UTC-04:00)
Language:

Explorer 11/Cluster Stage 4 - Orbit

View from above orbital plane
View from above orbital plane
View from above satellite
View from above satellite

Ground track
Ground track

The orbit data is extracted from the following two-line orbital elements,

1 00107U 61013A   14302.03020881  .00006651  00000-0  90670-3 0  1705
2 00107 028.7879 271.1242 0560184 015.3651 037.3505 14.05617741675417
Epoch (UTC): 29 October 2014 00:43:30
Eccentricity: 0.0560184
inclination: 28.7879°
perigee height: 468 km
apogee height: 1280 km
right ascension of ascending node: 271.1242°
argument of perigee: 15.3651°
revolutions per day: 14.05617741
mean anomaly at epoch: 37.3505°
orbit number at epoch: 67541

The dashed part of the orbit path shows where the satellite is in the earth's shadow,  

DLR